SUNNYSIDE Weather Reports


time (UTC)temp
C
wind
direction
speed
KPH
gust
KPH
rain 1hr
cm
rain 24hr
cm
rain mn
cm
humidity
%
barometer
mb
20260901115032 14 360 4.8 16.1 0.00 0.05 0.00 64 979.1
20260901114528 14 242 8.0 16.1 0.00 0.05 0.00 64 979.2
20260901114027 14 227 8.0 12.9 0.00 0.05 0.00 64 979.2
20260901113526 14 240 6.4 14.5 0.00 0.05 0.00 63 979.1
20260901113026 14 360 8.0 14.5 0.00 0.05 0.00 63 979.0
20260901112526 14 230 8.0 14.5 0.00 0.05 0.00 63 978.9
20260901112028 14 240 8.0 14.5 0.00 0.05 0.00 63 979.0
20260901111525 14 231 6.4 12.9 0.00 0.05 0.00 62 978.9
20260901111024 14 231 8.0 12.9 0.00 0.05 0.00 62 979.0
20260901110524 14 238 8.0 14.5 0.00 0.05 0.00 62 978.9
20260901110024 14 244 6.4 12.9 0.00 0.05 0.00 62 978.8
20260901105527 14 235 6.4 12.9 0.00 0.05 0.00 61 978.8
20260901105027 15 360 6.4 16.1 0.00 0.05 0.00 61 978.7
20260901104525 15 236 9.7 16.1 0.00 0.05 0.00 61 978.8
20260901104126 15 234 9.7 14.5 0.00 0.05 0.00 61 978.7
20260901103529 15 236 9.7 14.5 0.00 0.05 0.00 61 978.8
20260901103027 15 240 9.7 14.5 0.00 0.05 0.00 61 978.8
20260901102525 15 236 9.7 17.7 0.00 0.05 0.00 61 978.8
20260901102022 15 244 9.7 17.7 0.00 0.05 0.00 61 978.7
20260901101521 15 242 11.3 19.3 0.00 0.05 0.00 61 978.7
20260901101020 15 240 9.7 19.3 0.00 0.05 0.00 62 978.7
20260901100521 15 216 9.7 16.1 0.00 0.05 0.00 63 978.6
20260901100019 15 229 6.4 14.5 0.00 0.05 0.00 63 978.5
20260901095519 15 225 6.4 14.5 0.00 0.05 0.00 63 978.6
20260901095019 15 226 6.4 14.5 0.00 0.05 0.00 64 978.5
20260901094523 15 198 4.8 14.5 0.00 0.05 0.00 64 978.5
20260901094017 15 232 4.8 14.5 0.00 0.05 0.00 64 978.5
20260901093519 15 234 4.8 14.5 0.00 0.05 0.00 64 978.5
20260901093015 14 234 6.4 14.5 0.00 0.05 0.00 65 978.6
20260901092516 14 222 6.4 11.3 0.00 0.05 0.00 65 978.7
20260901092015 14 225 4.8 19.3 0.00 0.05 0.00 64 978.7
20260901091514 13 233 8.0 19.3 0.00 0.05 0.00 64 978.7
20260901091013 13 240 6.4 16.1 0.00 0.05 0.00 63 978.6
20260901090513 13 242 8.0 16.1 0.00 0.05 0.00 63 978.5
20260901090013 13 236 9.7 16.1 0.00 0.05 0.00 62 978.6
20260901085512 13 225 8.0 14.5 0.00 0.05 0.00 62 978.5
20260901085011 13 240 9.7 16.1 0.00 0.05 0.00 61 978.5
20260901084512 13 238 8.0 14.5 0.00 0.05 0.00 61 978.5
20260901084011 13 244 8.0 17.7 0.00 0.05 0.00 61 978.5
20260901083511 13 234 11.3 20.9 0.00 0.05 0.00 61 978.6
20260901083011 13 234 14.5 20.9 0.00 0.05 0.00 61 978.5
20260901082508 13 227 9.7 20.9 0.00 0.05 0.00 61 978.5
20260901082010 13 225 12.9 17.7 0.00 0.05 0.00 61 978.5
20260901081509 13 236 11.3 19.3 0.00 0.05 0.00 61 978.5
20260901081006 13 240 11.3 19.3 0.00 0.05 0.00 61 978.4
20260901080506 13 248 9.7 17.7 0.00 0.05 0.00 61 978.4
20260901080005 13 231 11.3 17.7 0.00 0.05 0.00 61 978.4
20260901075506 13 242 9.7 19.3 0.00 0.05 0.00 61 978.3
20260901075005 13 242 9.7 17.7 0.00 0.05 0.00 61 978.4
20260901074507 13 224 11.3 17.7 0.00 0.05 0.00 61 978.3
20260901074003 13 254 9.7 17.7 0.00 0.05 0.00 61 978.3
20260901073503 13 360 9.7 17.7 0.00 0.05 0.00 60 978.3
20260901073003 13 360 11.3 20.9 0.00 0.05 0.00 61 978.4
20260901072501 13 244 11.3 20.9 0.00 0.05 0.00 61 978.4
20260901072001 13 242 11.3 22.5 0.00 0.05 0.00 61 978.4
20260901071502 13 240 12.9 22.5 0.00 0.05 0.00 61 978.4
20260901071059 13 360 11.3 19.3 0.00 0.05 0.00 61 978.3
20260901070558 13 234 8.0 19.3 0.00 0.05 0.00 60 978.3
20260901070104 14 233 11.3 19.3 0.00 0.05 0.00 61 978.3
20260901065557 14 248 11.3 17.7 0.00 0.23 0.00 61 978.3
20260901065056 14 244 11.3 16.1 0.00 0.23 0.00 60 978.1
20260901064556 14 227 9.7 16.1 0.00 0.23 0.00 60 978.1
20260901064056 14 229 8.0 17.7 0.00 0.23 0.00 60 978.2
20260901063556 14 360 8.0 17.7 0.00 0.23 0.00 60 978.1
20260901063054 14 242 11.3 16.1 0.00 0.23 0.00 60 978.1
20260901062554 14 242 9.7 19.3 0.00 0.23 0.00 60 978.1
20260901062054 14 360 9.7 19.3 0.00 0.23 0.00 60 978.1
20260901061554 14 247 9.7 16.1 0.00 0.23 0.00 60 978.1
20260901061053 14 238 9.7 17.7 0.00 0.23 0.00 60 978.1
20260901060554 14 252 11.3 17.7 0.00 0.23 0.00 60 977.9
20260901060051 14 360 8.0 16.1 0.00 0.23 0.00 60 977.9
20260901055550 14 360 8.0 14.5 0.00 3.61 0.00 59 977.9
20260901055050 14 245 8.0 14.5 0.00 3.61 0.00 59 977.8
20260901054549 14 244 6.4 14.5 0.00 3.61 0.00 59 977.8
20260901054049 14 245 8.0 19.3 0.00 3.61 0.00 59 977.7
20260901053553 14 236 9.7 19.3 0.00 3.61 0.00 59 977.6
20260901053115 14 242 11.3 16.1 0.00 3.61 0.00 59 977.5
20260901052546 14 233 6.4 12.9 0.00 3.61 0.00 58 977.4
20260901052045 14 248 6.4 12.9 0.00 3.61 0.00 58 977.6
20260901051602 14 240 8.0 16.1 0.00 3.61 0.00 57 977.7
20260901051043 14 236 8.0 16.1 0.00 3.61 0.00 57 977.6
20260901050542 15 235 11.3 16.1 0.00 3.61 0.00 57 977.6
20260901050041 15 242 9.7 16.1 0.00 3.61 0.00 57 977.4
20260901045540 15 239 12.9 16.1 0.00 5.00 0.00 57 977.5
20260901045040 15 244 9.7 14.5 0.00 5.00 0.00 57 977.4
20260901044552 15 239 11.3 17.7 0.00 5.00 0.00 57 977.4
20260901044039 15 240 9.7 17.7 0.00 5.00 0.00 58 977.3
20260901043538 14 229 11.3 16.1 0.00 5.00 0.00 58 977.2
20260901043038 14 233 8.0 12.9 0.00 5.00 0.00 58 977.2
20260901042537 14 236 6.4 11.3 0.00 5.00 0.00 58 977.2
20260901042036 14 226 6.4 11.3 0.00 5.00 0.00 57 977.2
20260901041536 14 224 6.4 14.5 0.00 5.00 0.00 57 977.1
20260901041035 14 237 8.0 16.1 0.00 5.00 0.00 57 977.1
20260901040534 14 230 8.0 12.9 0.00 5.00 0.00 57 977.1
20260901040039 14 221 6.4 14.5 0.00 5.00 0.00 56 977.0
20260901035534 14 236 4.8 12.9 0.00 5.00 0.00 56 977.0
20260901035033 14 227 4.8 9.7 0.00 5.00 0.00 55 977.0
20260901034532 14 217 3.2 9.7 0.00 5.00 0.00 54 976.9
20260901034031 15 229 1.6 11.3 0.00 5.00 0.00 54 976.9
20260901033531 15 239 4.8 11.3 0.00 5.00 0.00 54 977.0
20260901033033 15 236 1.6 8.0 0.00 5.00 0.00 54 976.9
20260901032530 15 223 1.6 4.8 0.00 5.00 0.00 54 976.8
20260901032029 15 223 0.0 8.0 0.00 5.00 0.00 54 976.8
20260901031532 15 219 0.0 8.0 0.00 5.00 0.00 54 976.8
20260901031030 15 225 1.6 9.7 0.00 5.00 0.00 54 976.7
20260901030527 15 228 4.8 9.7 0.00 5.00 0.00 54 976.8
20260901030028 15 224 6.4 11.3 0.00 5.00 0.00 54 976.7
20260901025526 15 229 4.8 9.7 0.00 5.00 0.00 54 976.7
20260901025027 15 233 3.2 9.7 0.00 5.00 0.00 54 976.5
20260901024525 15 225 6.4 9.7 0.00 5.00 0.00 55 976.6
20260901024028 14 236 3.2 8.0 0.00 5.00 0.00 55 976.5
20260901023525 14 237 3.2 8.0 0.00 5.00 0.00 55 976.6
20260901023036 14 240 3.2 8.0 0.00 5.00 0.00 54 976.5
20260901022523 15 234 3.2 8.0 0.00 5.00 0.00 53 976.5
20260901022023 15 240 4.8 9.7 0.00 5.00 0.00 53 976.5
20260901021524 15 237 4.8 9.7 0.00 5.00 0.00 53 976.4
20260901010526 16 360 12.9 19.3 0.00 5.00 0.05 51 975.6
20260901010024 16 360 9.7 22.5 0.00 5.00 0.05 50 975.6
20260901005525 17 244 12.9 22.5 0.00 5.00 0.05 50 975.4
20260901005025 17 218 14.5 25.7 0.00 5.00 0.05 49 975.2
20260901004523 17 240 17.7 25.7 0.00 5.00 0.05 49 975.1
20260901004021 17 232 17.7 25.7 0.00 5.00 0.05 49 975.2
20260901003520 17 234 17.7 29.0 0.03 5.00 0.05 50 975.1
20260901003019 17 234 17.7 29.0 0.05 5.00 0.05 51 974.9
20260831232056 20 232 24.1 37.0 0.00 4.95 3.56 52 973.3
20260831231557 20 229 24.1 51.5 0.00 4.95 3.56 53 973.2
20260831231056 20 269 32.2 53.1 0.00 4.95 3.56 52 973.2
20260831230554 21 234 32.2 53.1 0.00 4.95 3.56 52 973.1
20260831230108 21 218 32.2 46.7 0.00 4.95 3.56 51 972.9
20260831225557 21 240 29.0 49.9 0.00 4.95 3.56 50 972.8
20260831225054 21 229 32.2 49.9 0.00 4.95 3.56 50 972.7
20260831224554 21 226 32.2 53.1 0.00 4.95 3.56 50 972.5
20260831224055 21 218 30.6 53.1 0.00 4.95 3.56 50 972.4
20260831223558 21 239 32.2 49.9 0.00 4.95 3.56 50 972.4
20260831223055 21 245 27.4 45.1 0.00 4.95 3.56 50 972.3
20260831222555 21 215 22.5 45.1 0.00 4.95 3.56 50 972.4
20260831222055 22 292 17.7 61.2 0.00 4.95 3.56 49 972.3
20260831221602 22 214 40.2 61.2 0.00 4.95 3.56 49 972.2
20260831221053 22 224 19.3 53.1 0.00 4.95 3.56 49 972.4
20260831220553 22 208 29.0 49.9 0.00 4.95 3.56 48 972.4
20260831215556 22 235 17.7 41.8 0.00 4.95 3.56 49 972.2
20260831215053 22 219 20.9 41.8 0.00 4.95 3.56 49 972.1
20260831214553 22 227 16.1 49.9 0.00 4.95 3.56 49 971.9
20260831214053 21 249 24.1 49.9 0.00 4.95 3.56 49 972.1
20260831213553 22 221 14.5 45.1 0.00 4.95 3.56 48 972.3
20260831213058 22 223 22.5 45.1 0.00 4.95 3.56 46 972.4
20260831212552 22 252 12.9 49.9 0.00 4.95 3.56 46 972.4
20260831212056 22 223 20.9 35.4 0.00 4.95 3.56 45 972.3
20260831211602 22 227 8.0 19.3 0.00 4.95 3.56 47 972.0
20260831211051 22 227 9.7 19.3 0.00 4.95 3.56 46 971.9
20260831210551 22 232 6.4 16.1 0.00 4.95 3.56 46 971.8
20260831210050 22 221 8.0 16.1 0.00 4.95 3.56 46 971.8
20260831205550 22 238 4.8 24.1 0.00 4.95 3.56 45 971.9
20260831205050 22 215 8.0 24.1 0.00 4.95 3.56 45 972.0
20260831204554 22 206 6.4 22.5 0.00 4.95 3.56 45 972.1
20260831204050 22 230 11.3 22.5 0.00 4.95 3.56 45 972.1
20260831203550 22 222 11.3 40.2 0.00 4.95 3.56 44 972.2
20260831203050 22 221 14.5 29.0 0.00 4.95 3.56 44 972.4
20260831202551 22 229 11.3 27.4 0.00 4.95 3.56 43 972.4
20260831202048 22 192 12.9 32.2 0.00 4.95 3.56 43 972.2
20260831201548 22 198 12.9 32.2 0.00 4.95 3.56 42 972.2
20260831201049 22 233 11.3 24.1 0.00 4.95 3.56 42 972.2
20260831200547 22 198 9.7 17.7 0.00 4.95 3.56 43 972.4
20260831200053 22 182 8.0 16.1 0.00 4.95 3.56 43 972.6
20260831195544 22 197 4.8 25.7 0.00 4.95 3.56 44 972.7
20260831195044 22 220 12.9 25.7 0.00 4.95 3.56 44 972.8
20260831194544 22 148 8.0 30.6 0.00 4.95 3.56 44 972.8
20260831194043 21 111 12.9 30.6 0.00 4.95 3.56 44 973.0
20260831193543 21 234 6.4 29.0 0.00 4.95 3.56 44 973.1
20260831193045 21 190 4.8 12.9 0.00 4.95 3.56 44 973.1
20260831192542 21 243 3.2 20.9 0.00 4.95 3.56 43 973.2
20260831192045 21 209 6.4 20.9 0.00 4.95 3.56 42 973.3
20260831191542 22 196 8.0 20.9 0.00 4.95 3.56 42 973.4
20260831191042 22 204 8.0 20.9 0.00 4.95 3.56 41 973.4
20260831190542 22 182 9.7 20.9 0.00 4.95 3.56 40 973.6
20260831190100 22 200 9.7 17.7 0.00 4.95 3.56 40 973.5
20260831185542 22 232 8.0 20.9 0.00 4.95 3.56 40 973.7
20260831185041 22 198 12.9 30.6 0.00 4.95 3.56 39 973.6
20260831184542 22 238 14.5 27.4 0.00 4.95 3.56 39 973.8
20260831184041 22 227 11.3 25.7 0.00 4.95 3.56 39 974.1
20260831183541 22 190 8.0 32.2 0.00 4.95 3.56 40 973.8
20260831183041 22 186 14.5 32.2 0.00 4.95 3.56 38 974.0
20260831182541 22 218 16.1 30.6 0.00 4.95 3.56 38 974.1
20260831182040 22 209 8.0 24.1 0.00 4.95 3.56 41 974.1
20260831181540 22 190 11.3 30.6 0.00 4.95 3.56 41 974.2
20260831181040 23 191 14.5 30.6 0.00 4.95 3.56 40 974.2
20260831180538 22 186 16.1 35.4 0.00 4.95 3.56 41 974.4
20260831180046 22 186 12.9 35.4 0.00 4.95 3.56 42 974.4
20260831175537 22 199 16.1 35.4 0.00 4.95 3.56 42 974.5
20260831175037 22 205 9.7 29.0 0.00 4.95 3.56 43 974.7
20260831174540 22 182 14.5 24.1 0.00 4.95 3.56 41 974.9
20260831174036 22 200 11.3 32.2 0.00 4.95 3.56 43 975.1
20260831173534 22 193 14.5 32.2 0.00 4.95 3.56 43 975.1
20260831173035 22 197 12.9 27.4 0.00 4.95 3.56 45 975.1
20260831172535 22 244 12.9 30.6 0.00 4.95 3.56 45 975.3
20260831172034 22 235 14.5 30.6 0.00 4.95 3.56 48 975.4
20260831171534 22 208 8.0 27.4 0.00 4.95 3.56 49 975.4
20260831171033 22 187 8.0 27.4 0.00 4.95 3.56 48 975.5
20260831170532 22 189 9.7 25.7 0.00 4.95 3.56 49 975.5
20260831170031 22 186 11.3 25.7 0.00 4.95 3.56 49 975.6
20260831165535 22 76 9.7 25.7 0.00 4.95 3.56 49 975.7
20260831165031 22 222 9.7 25.7 0.00 4.95 3.56 49 975.7
20260831164545 22 182 9.7 24.1 0.00 4.95 3.56 49 975.7
20260831164030 22 177 8.0 20.9 0.00 4.95 3.56 50 975.8
20260831163529 21 180 11.3 30.6 0.00 4.95 3.56 51 976.0
20260831163028 21 144 16.1 32.2 0.00 4.95 3.56 50 976.0
20260831162527 21 170 11.3 24.1 0.00 4.95 3.56 51 976.1
20260831162026 21 200 9.7 24.1 0.00 4.95 3.56 50 976.2
20260831161525 21 360 11.3 24.1 0.00 4.95 3.56 51 976.1
20260831161025 21 196 11.3 20.9 0.00 4.95 3.56 50 976.3
20260831160524 21 236 8.0 20.9 0.00 4.95 3.56 48 976.3
20260831160023 21 215 9.7 25.7 0.00 4.95 3.56 50 976.3
20260831155524 21 209 4.8 17.7 0.00 4.95 3.56 53 976.2
20260831155021 21 190 6.4 17.7 0.00 4.95 3.56 52 976.3
20260831154519 21 198 8.0 17.7 0.00 4.95 3.56 52 976.3
20260831154020 21 188 6.4 14.5 0.00 4.95 3.56 50 976.2
20260831153517 21 177 4.8 12.9 0.00 4.95 3.56 45 976.3
20260831153014 21 209 6.4 12.9 0.00 4.95 3.56 44 976.3
20260831152515 20 178 4.8 16.1 0.00 4.95 3.56 47 976.4
20260831152012 20 194 9.7 17.7 0.00 4.95 3.56 46 976.6
20260831151512 20 237 6.4 14.5 0.00 4.95 3.56 47 976.5
20260831151009 20 171 6.4 16.1 0.00 4.95 3.56 47 976.5
20260831150510 20 194 6.4 19.3 0.00 4.95 3.56 50 976.8
20260831150009 20 215 6.4 19.3 0.00 4.95 3.56 50 976.7
20260831145504 20 221 6.4 19.3 0.00 4.95 3.56 52 976.7
20260831145002 19 220 11.3 19.3 0.00 4.95 3.56 52 976.7
20260831144505 19 240 8.0 24.1 0.00 4.95 3.56 54 976.5
20260831144100 18 234 12.9 24.1 0.00 4.95 3.56 54 976.6
20260831143559 18 224 11.3 22.5 0.00 4.95 3.56 55 976.6
20260831143103 18 228 4.8 16.1 0.00 4.95 3.56 56 976.6
20260831142556 18 226 6.4 20.9 0.00 4.95 3.56 57 976.5
20260831142058 18 230 9.7 20.9 0.00 4.95 3.56 57 976.5
20260831141603 17 218 3.2 11.3 0.00 4.95 3.56 58 976.5
20260831141053 17 231 6.4 12.9 0.00 4.95 3.56 59 976.7
20260831140550 17 231 4.8 12.9 0.00 4.95 3.56 61 976.7
20260831140052 17 233 4.8 12.9 0.00 4.95 3.56 62 976.6
20260831135551 16 220 3.2 11.3 0.00 4.95 3.56 62 976.6
20260831135050 16 225 4.8 11.3 0.00 4.95 3.56 63 976.4
20260831134554 16 222 1.6 8.0 0.00 4.95 3.56 63 976.5
20260831134049 16 229 1.6 8.0 0.00 4.95 3.56 64 976.4
20260831133549 16 229 3.2 8.0 0.00 4.95 3.56 63 976.5
20260831133049 16 210 4.8 8.0 0.00 4.95 3.56 64 976.4
20260831132549 16 217 3.2 6.4 0.00 4.95 3.56 65 976.3
20260831132049 16 225 1.6 6.4 0.00 4.95 3.56 65 976.4
20260831131552 15 225 1.6 9.7 0.00 4.95 3.56 65 976.4
20260831131048 15 225 3.2 9.7 0.00 4.95 3.56 65 976.4
20260831130548 15 227 4.8 6.4 0.00 4.95 3.56 65 976.4
20260831130049 15 229 1.6 6.4 0.00 4.95 3.56 66 976.3
20260831125549 15 223 1.6 8.0 0.00 4.95 3.56 66 976.3
20260831125048 15 224 3.2 8.0 0.00 4.95 3.56 66 976.3
20260831124549 15 223 0.0 8.0 0.00 4.95 3.56 67 976.3
20260831124048 15 223 0.0 8.0 0.00 4.95 3.56 67 976.2
20260831123547 15 219 3.2 8.0 0.00 4.95 3.56 67 976.2
20260831123047 15 221 1.6 8.0 0.00 4.95 3.56 67 976.2
20260831122549 15 207 3.2 14.5 0.00 4.95 3.56 67 976.2
20260831122047 15 228 6.4 14.5 0.00 4.95 3.56 68 976.2
20260831121547 15 222 3.2 11.3 0.00 4.95 3.56 68 976.0
20260831121046 15 234 4.8 11.3 0.00 4.95 3.56 68 975.9
20260831120546 15 217 3.2 14.5 0.00 4.95 3.56 68 975.9
20260831120045 15 229 4.8 16.1 0.00 4.95 3.56 68 975.9
20260831115544 15 228 9.7 16.1 0.00 4.95 3.56 67 975.8